Location: Neave
(33.9167°S, 25.5667°E)
Time: 21:00:23
(UTC+00:00)

Daily predictions for brighter satellites

Satellite Brightness Start Highest point End
(mag) Time Altitude Azimuth Time Altitude Azimuth Time Altitude Azimuth
NOSS 0 Rocket 4.3 17:16:15 10° S 17:22:14 49° ESE 17:28:09 10° NE
YAOGAN 1 2.7 17:19:41 10° SSE 17:24:00 54° E 17:28:15 10° N
COSMOS 2428 2.8 17:20:14 10° SSW 17:26:01 87° WNW 17:31:42 10° NNE
Cosmos 1633 Rocket 4.1 17:22:09 10° NNW 17:26:29 52° W 17:30:52 10° S
Starlink Launch 2 leader 2.2 17:24:02 10° NW 17:26:31 86° NE 17:29:04 10° SE
SeaSat 1 3.7 17:24:33 10° ESE 17:28:14 21° ENE 17:31:52 10° NNE
CZ-2D R/B 3.8 17:25:59 10° SSE 17:29:41 38° E 17:33:20 10° NNE
Starlink Launch 2 trailer 2.4 17:27:43 10° NW 17:30:12 82° SW 17:32:45 10° SE
FALCON 9 DEB 2.4 17:27:55 10° NW 17:30:26 84° SW 17:32:59 10° SE
FALCON 9 DEB 2.4 17:29:46 10° NW 17:32:17 79° SW 17:34:50 10° SE
Cosmos 2237 Rocket 2.9 17:27:48 10° S 17:33:07 38° ESE 17:38:23 10° NE
Delta 2 Rocket 3.3 17:29:23 10° WSW 17:33:36 74° S 17:37:18 10° E
Cosmos 1812 2.7 17:30:24 10° S 17:34:18 65° E 17:38:08 10° NNE
SL-4 R/B 2.9 17:31:49 10° WSW 17:35:01 34° NW 17:38:18 10° NNE
STARLINK 1040 2.8 17:34:29 10° NW 17:37:05 66° SW 17:39:42 10° SE
Envisat 4.1 17:32:08 10° S 17:37:07 51° WSW 17:42:02 10° NNW
Cosmos 1607 4.4 17:32:35 10° N 17:38:29 41° ENE 17:44:27 10° SE
Cosmos 1933 Rocket 3.6 17:37:20 10° N 17:41:46 83° E 17:46:17 10° S
Cosmos 2251 Rocket 3.7 17:37:50 10° S 17:43:12 63° ESE 17:48:32 10° NNE
DMSP B5D2-2 4.2 17:40:29 10° NNE 17:45:39 61° ESE 17:50:54 10° S
STARLINK 1044 4.2 17:52:16 10° WNW 17:54:49 37° SW 17:57:24 10° SSE
Cosmos 2056 Rocket 4.3 17:50:35 10° NNE 17:55:16 32° E 18:00:04 10° SE
Cosmos 1092 Rocket 4.0 17:51:52 10° S 17:58:12 79° E 18:04:30 10° N
Cosmos 1980 3.7 17:52:49 10° SSW 17:58:33 70° ESE 18:03:46 12° NNE
Aureole 1 Rocket 4.4 17:53:34 10° S 18:01:12 56° ESE 18:06:19 15° NE
Meteor 1-25 Rocket 4.3 17:56:40 10° N 18:02:29 68° E 18:08:21 10° SSE
Meteor 1-20 Rocket 4.2 17:59:01 10° N 18:04:37 70° E 18:10:12 10° SSE
FREGAT/IRIS 3.2 18:03:21 10° SSE 18:05:59 32° E 18:07:00 24° NE
MONITOR-E 4.2 18:04:15 10° SSE 18:07:00 44° E 18:08:42 19° NNE
Cosmos 1602 4.3 18:05:33 15° NNE 18:08:23 38° E 18:12:04 10° SSE
Cosmos 2195 Rocket 4.4 18:06:55 10° S 18:13:10 86° E 18:19:18 10° N
CZ-4 R/B 4.0 18:11:16 10° SSW 18:14:48 25° WSW 18:18:18 10° NW
Delta 128 4.4 18:13:11 10° WNW 18:17:39 41° N 18:20:21 23° NE
Cosmos 2333 Rocket 4.1 18:13:29 10° SW 18:18:10 27° WNW 18:22:51 10° NNW
FALCON 9 R/B 4.2 17:46:38 10° WNW 18:18:23 89° N 18:25:34 10° E
Cosmos 1703 Rocket 3.5 18:14:56 10° S 18:19:20 77° E 18:22:33 18° NNE
Cosmos 2219 Rocket 4.1 18:14:57 10° SW 18:19:37 27° WNW 18:24:14 10° NNW
USA 234 4.1 18:14:47 15° E 18:19:47 39° SE 18:25:49 10° SSW
Ariane Rocket 2.9 18:14:52 10° SSE 18:20:03 81° ENE 18:25:11 10° N
Cosmos 2242 Rocket 4.3 18:16:06 10° SSW 18:20:28 53° W 18:24:46 10° N
ARGOS 4.1 18:16:40 10° SE 18:21:21 28° E 18:23:10 23° NE
Cosmos 1939 Rocket 4.1 18:18:32 10° S 18:22:28 45° WSW 18:26:24 10° NNW
Orbus 21S 3.8 18:17:41 10° WNW 18:22:36 21° NNW 18:23:42 18° N
Cosmos 2297 Rocket 3.7 18:19:00 10° NW 18:24:17 39° WSW 18:29:38 10° S
Cosmos 2227 Rocket 3.5 18:19:22 10° NW 18:24:42 42° WSW 18:30:06 10° S
RESURS DK-1 3.6 18:25:07 10° SW 18:28:59 37° WNW 18:32:17 13° N
SEDSat Delta rocket 3.7 18:23:38 10° WNW 18:29:52 64° N 18:33:17 24° E
Meteor 1-14 Rocket 4.2 18:25:24 10° N 18:31:16 85° E 18:37:03 10° S
Cosmos 1869 Rocket 3.8 18:28:16 10° N 18:32:42 75° W 18:37:15 10° S
GPS 2-05 Rocket1 2.4 18:34:34 10° W 18:37:23 70° S 18:37:41 62° SE
Meteosat 1 Rocket2 3.4 18:33:28 10° WNW 18:38:10 40° N 18:38:54 37° NNE
Cosmos 1340 2.9 18:39:34 45° ENE 18:39:56 46° E 18:43:38 10° SSE
Cosmos 2263 Rocket 3.3 18:43:25 25° E 18:43:25 25° E 18:47:28 10° SE
Cosmos 1452 Rocket 4.3 18:43:50 31° ENE 18:43:58 31° E 18:48:36 10° SE
OAO 3 Copernicus 4.3 18:39:45 10° W 18:44:52 74° NNW 18:46:44 39° ENE
Cosmos 1733 Rocket 3.5 18:44:49 39° ENE 18:45:11 40° E 18:49:22 10° SSE
Cosmos 1371 Rocket 4.4 18:40:17 10° NNW 18:45:27 66° WSW 18:50:45 10° S
Okean 1 3.2 18:41:30 10° S 18:45:37 80° E 18:46:51 44° NNE
SPOT 3 Rocket 3.7 18:40:45 10° SSE 18:45:52 51° E 18:47:48 34° NNE
H-2A R/B 2.1 18:43:29 10° SSE 18:48:49 61° E 18:51:30 30° N
Lacrosse 5 rocket 2.7 18:45:14 10° SW 18:49:33 37° WNW 18:51:26 25° NNW
SL-16 R/B 2.3 18:44:11 10° SSW 18:49:51 64° ESE 18:51:56 38° NE
Cosmos 1140 Rocket 4.1 18:45:12 10° S 18:50:06 38° ESE 18:51:14 34° E
CZ-2C R/B 3.4 18:46:27 14° N 18:50:48 48° W 18:55:59 10° SSW
Resurs 1-3 4.4 18:47:14 10° SSE 18:50:47 33° E 18:50:47 33° E
Cosmos 1346 Rocket 2.7 18:51:29 56° NNE 18:52:07 67° E 18:56:12 10° SSE
ATLAS 5 CENTAUR R/B 2.9 18:45:08 10° NW 18:52:17 73° WSW 18:59:02 10° SSE
Thor Agena Rocket 4.0 18:54:18 38° ENE 18:55:28 44° ESE 19:00:26 10° S
FALCON 9 DEB 4.2 18:52:29 10° SSW 18:55:50 36° SE 18:55:58 36° SE
EO 1 Del DPAF 3.8 18:57:09 42° ESE 18:57:09 42° ESE 19:00:35 10° S
BREEZE-M DEB (TANK) 4.0 18:54:26 10° W 18:57:41 32° NW 19:00:05 24° N
SJ-6B 2.8 18:54:36 10° S 18:58:27 77° WSW 18:59:30 45° NNW
USA 186 3.2 18:57:48 10° S 18:59:47 28° WSW 18:59:47 28° WSW
CZ-3B R/B 4.3 18:46:58 10° W 19:00:29 58° NNW 19:10:13 30° NE
IRIDIUM 104 4.2 18:57:56 10° S 19:03:14 82° E 19:04:58 44° N
Cosmos 2266 Rocket 4.1 18:57:18 10° S 19:03:20 56° E 19:05:01 43° NE
SeaSat 1 3.7 19:01:08 10° S 19:05:49 42° WSW 19:10:27 10° NW
MOS 1 Rocket 3.9 19:04:56 32° N 19:07:29 67° W 19:13:00 10° SSW
Cosmos 724 4.2 19:06:32 27° N 19:09:48 68° ENE 19:15:44 10° SSE
Cosmos 1023 Rocket 4.5 19:05:30 10° S 19:10:45 63° ESE 19:11:29 56° ENE
FALCON 9 R/B 3.5 19:06:56 10° NNW 19:11:55 37° NE 19:32:13 10° E
IRIDIUM 114 4.3 19:07:05 10° S 19:12:24 80° W 19:14:07 44° N
Delta 2 Rocket 4.3 19:12:10 10° W 19:14:40 32° WNW 19:14:40 32° WNW
CZ-2C R/B 3.2 19:10:21 10° SSE 19:16:16 76° ENE 19:18:02 47° N
Cosmos 2237 Rocket 4.0 19:12:25 10° SW 19:16:52 24° W 19:20:39 13° NNW
CZ-4C R/B 3.5 19:13:02 10° S 19:17:18 23° SE 19:18:08 22° ESE
Cosmos 614 Rocket 4.3 19:18:22 10° SSW 19:23:36 63° WNW 19:24:41 50° NNW
Cosmos 2227 4.1 19:23:32 40° NNW 19:25:43 89° WSW 19:31:26 10° SSE
Cosmos 1515 4.5 19:29:07 10° SSW 19:32:15 51° SW 19:32:15 51° SW
Cosmos 407 Rocket 4.0 19:28:09 10° SSW 19:33:13 51° WNW 19:34:05 45° NW
Kakehashi 4.0 19:29:42 10° W 19:35:22 63° N 19:37:07 50° NE
Cosmos 1500 4.3 19:37:56 42° SW 19:37:56 42° SW 19:40:47 10° S
Timation 1 Rocket 4.3 19:40:03 67° E 19:40:03 67° E 19:45:49 10° SSE
Meteor 2-4 Rocket 3.9 19:38:22 10° SSW 19:43:54 64° W 19:44:42 57° NW
Mayak 0.2 19:48:46 31° SSE 19:48:46 31° SSE 19:51:14 10° S
Lacrosse 5 3.5 19:44:58 10° SSW 19:49:08 24° SE 19:49:33 24° SE
Cosmos 1241 Rocket 4.4 19:45:47 10° SSW 19:52:25 86° WNW 19:53:00 76° N
Resurs 01 Rocket 2.2 19:48:01 10° S 19:51:55 56° SW 19:51:55 56° SW
Cosmos 676 Rocket 4.5 19:55:42 10° SSW 20:00:39 56° W 20:00:39 56° W
USA 234 3.5 20:02:07 54° NW 20:02:33 55° NW 20:09:00 10° SW
Cosmos 1244 Rocket 4.5 19:59:17 10° S 20:05:04 69° SE 20:05:04 69° SE
Cosmos 2263 Rocket 3.5 20:25:00 31° W 20:26:33 36° WSW 20:31:48 10° S
Spot 2 Rocket 4.3 20:23:06 10° S 20:27:05 48° SSW 20:27:05 48° SSW
SL-16 R/B 4.4 20:30:31 10° WSW 20:33:18 14° W 20:33:50 14° WNW
Cosmos 1745 Rocket 4.5 20:29:34 10° S 20:34:32 52° SE 20:34:32 52° SE
Gbstr 26 Del rocket 4.2 20:28:47 10° SW 20:36:31 82° S 20:36:31 82° S
Cosmos 1943 3.9 20:33:38 10° SSW 20:37:57 51° SW 20:37:57 51° SW
S3M 4.4 20:49:32 59° SSW 20:49:32 59° SSW 20:54:36 10° S
Terra 3.9 20:44:49 10° SSE 20:46:26 21° SSE 20:46:26 21° SSE
ERS-1 Rocket 4.4 20:47:53 10° S 20:50:47 35° S 20:50:47 35° S
CZ-4C R/B 3.9 21:01:08 10° SW 21:03:19 22° WSW 21:03:19 22° WSW
Cosmos 1844 Rocket 4.0 21:11:50 36° SSE 21:11:50 36° SSE 21:15:05 10° SSE
Lacrosse 5 4.2 21:27:20 10° SW 21:28:44 18° SW 21:28:44 18° SW
Resurs 1-4 Rocket 4.5 21:56:32 15° ESE 21:56:32 15° ESE 21:58:54 10° SSE
USA 215 4.3 22:15:11 10° SE 22:19:05 36° ESE 22:19:05 36° ESE
Cosmos 2082 Rocket 4.3 22:19:14 10° SSE 22:23:18 19° ESE 22:23:43 19° ESE
CENTAUR R/B 3.2 22:33:06 66° SE 22:33:06 66° SE 22:39:14 10° SSE
Cosmos 1833 Rocket 4.2 22:29:17 10° S 22:33:17 32° SE 22:33:17 32° SE
CZ-2D R/B 3.6 22:40:53 34° SE 22:40:53 34° SE 22:44:36 10° S
ATLAS 3B R/B 3.0 22:51:26 68° SSE 22:51:26 68° SSE 22:57:48 10° SSE
Cosmos 2278 Rocket 3.6 22:58:31 34° SSW 22:58:31 34° SSW 23:02:11 10° S
ADEOS II 4.1 23:02:21 20° ESE 23:02:56 21° ESE 23:06:48 10° SSE
Cosmos 2369 Rocket 3.9 23:28:29 24° E 23:28:29 24° E 23:32:32 10° SE
ARIANE 5 R/B 3.9 23:30:25 34° ESE 23:30:39 34° ESE 23:35:23 10° S
Cosmos 2297 4.3 23:35:49 52° S 23:35:49 52° S 23:40:08 10° SSE
Resurs 1-4 Rocket 3.5 23:37:36 31° SW 23:37:36 31° SW 23:40:26 10° SSW
ATLAS CENTAUR R/B 3.2 23:41:19 10° S 23:44:38 31° SE 23:44:38 31° SE
Cosmos 1943 Rocket 3.1 23:46:39 41° E 23:46:39 41° E 23:51:18 10° SE
Cosmos 1763 Rocket 4.3 23:52:24 45° ESE 23:52:24 45° ESE 23:56:43 10° SSE
IRS-1C 4.5 23:53:11 61° S 23:53:11 61° S 23:57:37 10° SSW
